Home > Weather > Bunbury > Past weeks

Flag for Australia Past Weather in Bunbury, Western Australia, Australia — Yesterday and Last 2 Weeks

Now
46 °F

Cool.


Feels Like: 46 °F
Forecast: 52 / 61 °F
Wind: 1 mph from Southeast

Location: Bunbury

Current Time: Jul 26, 2016 at 8:41:52 AM

Latest Report: Jul 26, 2016 at 8:00 AM


Visibility: N/A

Pressure: 30.37 "Hg

Humidity: 96%

Dew Point: 45 °F

Location of BunburyLocation

Past Weather in Bunbury — Graph

°F

Bunbury Temperature Yesterday

Maximum temperature yesterday: 60 °F (at 2:00 PM)
Minimum temperature yesterday: 44 °F (at 12:00 AM)
Average temperature yesterday: 52 °F

High & Low Weather Summary for the Past Weeks

 TemperatureHumidityPressure
High63 °F (Jul 16, 11:00 AM)96% (Jul 18, 3:00 AM)30.46 "Hg (Jul 18, 3:00 AM)
Low33 °F (Jul 13, 2:00 AM)49% (Jul 11, 2:00 PM)29.69 "Hg (Jul 16, 5:00 PM)
Average52 °F81%30.12 "Hg
* Reported Jul 11 6:00 AM — Jul 26 6:00 AM, Bunbury, Weather by CustomWeather, © 2016

Note: Actual official high and low records may vary slightly from our data, if they occured in-between our weather recording intervals... More about our weather records

Advertising

Bunbury Weather History for the Previous 24 Hours

Scroll right to see more
 ConditionsComfort  
Time TempWeatherWind HumidityBarometerVisibility
6:00 AM
Tue, Jul 26
43 °FQuite cool.1 mph96%30.34 "HgN/A
5:00 AM40 °FQuite cool.1 mph95%30.34 "HgN/A
3:00 AM43 °FQuite cool.No wind94%30.34 "HgN/A
2:00 AM45 °FCool.2 mph96%30.34 "HgN/A
12:00 AM48 °FCool.No wind93%30.36 "HgN/A
11:00 PM
Mon, Jul 25
50 °FCool.2 mph93%30.35 "HgN/A
9:00 PM49 °FCool.No wind91%30.36 "HgN/A
8:00 PM53 °FCool.2 mph85%30.35 "HgN/A
6:00 PM55 °FCool.2 mph81%30.33 "HgN/A
5:00 PM58 °FCool.5 mph75%30.32 "HgN/A
3:00 PM60 °FCool.7 mph70%30.32 "HgN/A
2:00 PM60 °FCool.6 mph71%30.32 "HgN/A
12:00 PM58 °FCool.5 mph76%30.36 "HgN/A
11:00 AM58 °FCool.3 mph72%30.38 "HgN/A
9:00 AM53 °FCool.2 mph92%30.38 "HgN/A
8:00 AM48 °FCool.1 mph95%30.37 "HgN/A
Weather by CustomWeather, © 2016

See weather overviewHow to use our weather pages